EW2137 Weather Reports


Display with metric or nautical units.
time (UTC)temp
F
wind
direction
speed
MPH
gust
MPH
rain 1hr
in
rain 24hr
in
rain mn
in
humidity
%
barometer
mb
20260504044534 57 184 1.0 2.0 0.00 0.00 0.00 59 1005.9
20260504043028 60 184 2.0 3.0 0.00 0.00 0.00 54 1005.8
20260504041528 59 184 1.0 3.0 0.00 0.00 0.00 56 1005.7
20260504040027 62 184 1.0 4.0 0.00 0.00 0.00 52 1005.6
20260504034526 62 185 1.0 3.0 0.00 0.00 0.00 52 1005.5
20260504033025 62 197 2.0 3.0 0.00 0.00 0.00 52 1005.4
20260504031525 63 146 1.0 3.0 0.00 0.00 0.00 58 1005.4
20260504030024 68 157 2.0 4.0 0.00 0.00 0.00 53 1005.3
20260504024531 72 107 1.0 3.0 0.00 0.00 0.00 39 1005.2
20260504023022 73 105 2.0 3.0 0.00 0.00 0.00 44 1005.1
20260504021524 76 96 2.0 3.0 0.00 0.00 0.00 37 1005.4
20260504020020 77 83 3.0 6.0 0.00 0.00 0.00 35 1005.4
20260504014518 77 91 3.0 5.0 0.00 0.00 0.00 39 1005.5
20260504013031 78 63 3.0 6.0 0.00 0.00 0.00 38 1005.6
20260504011515 78 74 2.0 7.0 0.00 0.00 0.00 40 1005.8
20260504010013 79 90 5.0 9.0 0.00 0.00 0.00 38 1005.9
20260504004512 80 80 7.0 9.0 0.00 0.00 0.00 34 1006.0
20260504003015 80 66 5.0 8.0 0.00 0.00 0.00 31 1006.1
20260504001509 80 84 6.0 9.0 0.00 0.00 0.00 33 1006.4
20260504000008 80 81 7.0 10.0 0.00 0.00 0.00 34 1006.5
20260503234506 80 101 4.0 12.0 0.00 0.00 0.00 29 1006.5
20260503233004 80 98 3.0 14.0 0.00 0.00 0.00 29 1006.9
20260503231504 80 96 8.0 10.0 0.00 0.00 0.00 30 1006.9
20260503230002 80 90 9.0 14.0 0.00 0.00 0.00 33 1007.2
20260503224600 80 98 3.0 14.0 0.00 0.00 0.00 27 1007.6
20260503223057 80 107 8.0 11.0 0.00 0.00 0.00 28 1007.8
20260503221559 80 65 3.0 11.0 0.00 0.00 0.00 30 1007.9
20260503220055 80 79 4.0 10.0 0.00 0.00 0.00 27 1008.1
20260503214551 79 80 7.0 13.0 0.00 0.00 0.00 31 1008.4
20260503213050 79 59 9.0 13.0 0.00 0.00 0.00 28 1008.5
20260503211548 79 55 9.0 14.0 0.00 0.00 0.00 30 1008.7
20260503210046 78 78 7.0 14.0 0.00 0.00 0.00 29 1009.0
20260503204545 79 41 5.0 10.0 0.00 0.00 0.00 28 1009.2
20260503203044 78 28 9.0 14.0 0.00 0.00 0.00 34 1009.3
20260503201540 78 65 6.0 12.0 0.00 0.00 0.00 33 1009.5
20260503200036 76 74 7.0 12.0 0.00 0.00 0.00 39 1009.7
20260503194536 76 76 7.0 15.0 0.00 0.00 0.00 41 1009.9
20260503193033 76 67 5.0 10.0 0.00 0.00 0.00 40 1010.1
20260503191530 75 77 4.0 8.0 0.00 0.00 0.00 38 1010.3
20260503190026 74 61 3.0 8.0 0.00 0.00 0.00 44 1010.4
20260503184526 73 72 7.0 10.0 0.00 0.00 0.00 43 1010.5
20260503183025 73 71 6.0 9.0 0.00 0.00 0.00 44 1010.6
20260503181524 73 49 7.0 9.0 0.00 0.00 0.00 42 1010.8
20260503180022 72 32 2.0 6.0 0.00 0.00 0.00 42 1010.7
20260503174524 72 94 2.0 5.0 0.00 0.00 0.00 48 1010.9
20260503173028 72 93 2.0 5.0 0.00 0.00 0.00 49 1010.9
20260503171519 72 76 3.0 6.0 0.00 0.00 0.00 45 1010.9
20260503081519 59 211 0.0 4.0 0.00 0.00 0.00 57 1010.2
20260503071514 61 208 0.0 2.0 0.00 0.00 0.00 58 1010.4